When you browse on this site, cookies collect data to enhance your experience and personalize the content and advertising you see.
Visit our Privacy Policy to learn more. By continuing to use the site, you agree to this use of cookies and data.
  • In Hungary
  • List of Countries
  • For 7 days
  • Water Temperature
  • Satellite Maps
  • Weather Map
  • News
  • Weather Widgets
  • user-avatar
    Login

    Hourly Weather Sydney

    Today, 18 November, Sunday

    Time Temperature Precipitation Wind Pressure Humidity
    00:00 +15°C° 0.1 mm 5 mps 766 mmHg 88%
    01:00 +15°C° 0.1 mm 5 mps 765 mmHg 89%
    02:00 +15°C° 0.1 mm 5 mps 765 mmHg 88%
    03:00 +14°C° 0.1 mm 5 mps 765 mmHg 88%
    04:00 +14°C° 0 mm 4 mps 765 mmHg 88%
    05:00 +15°C° 0 mm 4 mps 766 mmHg 82%
    06:00 +17°C° 0 mm 4 mps 766 mmHg 77%
    07:00 +18°C° 0 mm 4 mps 766 mmHg 72%
    08:00 +19°C° 0 mm 4 mps 766 mmHg 64%
    09:00 +21°C° 0 mm 4 mps 766 mmHg 57%
    10:00 +22°C° 0 mm 3 mps 767 mmHg 48%
    11:00 +23°C° 0 mm 4 mps 766 mmHg 47%
    12:00 +23°C° 0 mm 4 mps 766 mmHg 46%
    13:00 +23°C° 0 mm 5 mps 766 mmHg 45%
    14:00 +23°C° 0 mm 5 mps 766 mmHg 47%
    15:00 +22°C° 0 mm 5 mps 766 mmHg 50%
    16:00 +22°C° 0 mm 3 mps 765 mmHg 53%
    17:00 +20°C° 0 mm 3 mps 766 mmHg 58%
    18:00 +19°C° 0 mm 3 mps 766 mmHg 64%
    19:00 +18°C° 0 mm 3 mps 766 mmHg 70%
    20:00 +17°C° 0 mm 3 mps 766 mmHg 72%
    21:00 +16°C° 0 mm 2 mps 766 mmHg 74%
    22:00 +16°C° 0 mm 2 mps 766 mmHg 76%
    23:00 +16°C° 0 mm 2 mps 766 mmHg 75%

    Tomorrow, 19 November, Monday

    Time Temperature Precipitation Wind Pressure Humidity
    00:00 +16°C° 0 mm 2 mps 766 mmHg 75%
    01:00 +16°C° 0 mm 2 mps 765 mmHg 74%
    02:00 +16°C° 0 mm 2 mps 765 mmHg 75%
    03:00 +16°C° 0 mm 1 mps 765 mmHg 76%
    04:00 +16°C° 0 mm 1 mps 765 mmHg 76%
    05:00 +18°C° 0 mm 1 mps 765 mmHg 71%
    06:00 +19°C° 0 mm 1 mps 765 mmHg 66%
    07:00 +21°C° 0 mm 1 mps 765 mmHg 60%
    08:00 +20°C° 0 mm 2 mps 765 mmHg 56%
    09:00 +21°C° 0 mm 2 mps 765 mmHg 51%
    10:00 +22°C° 0 mm 3 mps 765 mmHg 46%
    11:00 +24°C° 0 mm 3 mps 764 mmHg 44%
    12:00 +25°C° 0 mm 3 mps 764 mmHg 42%
    13:00 +25°C° 0 mm 3 mps 763 mmHg 40%
    14:00 +25°C° 0 mm 4 mps 763 mmHg 41%
    15:00 +25°C° 0 mm 4 mps 762 mmHg 43%
    16:00 +25°C° 0 mm 4 mps 762 mmHg 45%
    17:00 +22°C° 0 mm 4 mps 762 mmHg 51%
    18:00 +20°C° 0 mm 4 mps 762 mmHg 57%
    19:00 +19°C° 0 mm 4 mps 762 mmHg 63%
    20:00 +18°C° 0 mm 4 mps 762 mmHg 67%
    21:00 +17°C° 0 mm 4 mps 763 mmHg 71%
    22:00 +16°C° 0 mm 3 mps 763 mmHg 75%
    23:00 +16°C° 0 mm 3 mps 763 mmHg 78%

    Day after tomorrow, 20 November, Tuesday

    Time Temperature Precipitation Wind Pressure Humidity
    00:00 +14°C° 0 mm 3 mps 762 mmHg 81%
    01:00 +15°C° 0 mm 2 mps 762 mmHg 84%
    02:00 +14°C° 0 mm 2 mps 762 mmHg 85%
    03:00 +14°C° 0 mm 2 mps 761 mmHg 87%
    04:00 +14°C° 0 mm 2 mps 761 mmHg 89%
    05:00 +15°C° 0 mm 2 mps 761 mmHg 81%
    06:00 +17°C° 0 mm 2 mps 761 mmHg 73%
    07:00 +19°C° 0 mm 3 mps 761 mmHg 65%
    08:00 +21°C° 0 mm 3 mps 760 mmHg 56%
    09:00 +25°C° 0 mm 3 mps 760 mmHg 47%
    10:00 +27°C° 0 mm 4 mps 759 mmHg 37%
    11:00 +29°C° 0 mm 4 mps 759 mmHg 35%
    12:00 +30°C° 0 mm 5 mps 758 mmHg 33%
    13:00 +32°C° 0 mm 6 mps 757 mmHg 31%
    14:00 +29°C° 0 mm 6 mps 756 mmHg 35%
    15:00 +28°C° 0 mm 7 mps 756 mmHg 39%
    16:00 +27°C° 0 mm 7 mps 755 mmHg 44%
    17:00 +26°C° 0 mm 7 mps 755 mmHg 50%
    18:00 +24°C° 0 mm 7 mps 754 mmHg 57%
    19:00 +23°C° 0 mm 7 mps 754 mmHg 63%
    20:00 +22°C° 0 mm 7 mps 754 mmHg 65%
    21:00 +22°C° 0 mm 6 mps 754 mmHg 67%
    22:00 +22°C° 0 mm 6 mps 755 mmHg 68%
    23:00 +21°C° 0 mm 6 mps 754 mmHg 71%

    21 November, Wednesday

    Time Temperature Precipitation Wind Pressure Humidity
    00:00 +21°C° 0 mm 5 mps 753 mmHg 75%
    01:00 +20°C° 0 mm 5 mps 752 mmHg 78%
    02:00 +20°C° 0.1 mm 4 mps 752 mmHg 80%
    03:00 +19°C° 0.1 mm 3 mps 752 mmHg 82%
    04:00 +19°C° 0.1 mm 3 mps 751 mmHg 84%
    05:00 +20°C° 0 mm 3 mps 751 mmHg 82%
    06:00 +20°C° 0 mm 3 mps 751 mmHg 80%
    07:00 +21°C° 0 mm 4 mps 751 mmHg 78%
    08:00 +25°C° 0 mm 4 mps 751 mmHg 67%
    09:00 +28°C° 0 mm 4 mps 751 mmHg 56%
    10:00 +32°C° 0 mm 4 mps 750 mmHg 45%
    11:00 +33°C° 0 mm 4 mps 750 mmHg 44%
    12:00 +33°C° 0 mm 4 mps 749 mmHg 43%
    13:00 +33°C° 0 mm 4 mps 749 mmHg 42%
    14:00 +31°C° 0 mm 3 mps 749 mmHg 44%
    15:00 +30°C° 0 mm 3 mps 748 mmHg 47%
    16:00 +29°C° 0 mm 2 mps 748 mmHg 49%
    17:00 +28°C° 0 mm 3 mps 748 mmHg 52%
    18:00 +27°C° 0 mm 3 mps 748 mmHg 55%
    19:00 +26°C° 0 mm 3 mps 749 mmHg 57%
    20:00 +25°C° 0.1 mm 3 mps 749 mmHg 63%
    21:00 +22°C° 0.1 mm 3 mps 749 mmHg 69%
    22:00 +20°C° 0.1 mm 3 mps 750 mmHg 75%
    23:00 +19°C° 0 mm 3 mps 749 mmHg 76%

    22 November, Thursday

    Time Temperature Precipitation Wind Pressure Humidity
    00:00 +19°C° 0 mm 3 mps 749 mmHg 77%
    01:00 +18°C° 0 mm 3 mps 748 mmHg 79%
    02:00 +18°C° 0 mm 3 mps 748 mmHg 79%
    03:00 +18°C° 0 mm 4 mps 747 mmHg 79%
    04:00 +17°C° 0 mm 4 mps 747 mmHg 79%
    05:00 +19°C° 0.1 mm 5 mps 747 mmHg 73%
    06:00 +20°C° 0.1 mm 5 mps 747 mmHg 67%
    07:00 +22°C° 0.1 mm 6 mps 747 mmHg 60%
    08:00 +22°C° 0.1 mm 7 mps 747 mmHg 49%
    09:00 +23°C° 0.1 mm 8 mps 747 mmHg 38%
    10:00 +24°C° 0.1 mm 8 mps 748 mmHg 27%
    11:00 +24°C° 0 mm 9 mps 747 mmHg 25%
    12:00 +24°C° 0 mm 9 mps 747 mmHg 23%
    13:00 +24°C° 0 mm 9 mps 747 mmHg 21%
    14:00 +23°C° 0 mm 9 mps 747 mmHg 20%
    15:00 +23°C° 0 mm 8 mps 747 mmHg 20%
    16:00 +23°C° 0 mm 8 mps 747 mmHg 19%
    17:00 +21°C° 0 mm 8 mps 748 mmHg 26%
    18:00 +18°C° 0 mm 9 mps 748 mmHg 33%
    19:00 +16°C° 0 mm 10 mps 749 mmHg 40%
    20:00 +15°C° 0 mm 9 mps 749 mmHg 43%
    21:00 +15°C° 0 mm 9 mps 750 mmHg 46%
    22:00 +13°C° 0 mm 9 mps 750 mmHg 49%
    23:00 +13°C° 0 mm 8 mps 750 mmHg 51%

    23 November, Friday

    Time Temperature Precipitation Wind Pressure Humidity
    00:00 +13°C° 0 mm 8 mps 750 mmHg 53%
    01:00 +13°C° 0 mm 8 mps 750 mmHg 55%
    02:00 +13°C° 0 mm 8 mps 750 mmHg 55%
    03:00 +12°C° 0 mm 8 mps 750 mmHg 55%
    04:00 +12°C° 0 mm 7 mps 751 mmHg 55%
    05:00 +14°C° 0 mm 7 mps 751 mmHg 51%
    06:00 +15°C° 0 mm 7 mps 751 mmHg 46%
    07:00 +16°C° 0 mm 7 mps 752 mmHg 42%
    08:00 +18°C° 0 mm 7 mps 751 mmHg 37%
    09:00 +21°C° 0 mm 7 mps 751 mmHg 32%
    10:00 +23°C° 0 mm 7 mps 750 mmHg 27%
    11:00 +23°C° 0 mm 8 mps 749 mmHg 25%
    12:00 +24°C° 0 mm 8 mps 749 mmHg 23%
    13:00 +26°C° 0 mm 9 mps 748 mmHg 21%
    14:00 +24°C° 0 mm 9 mps 748 mmHg 22%
    15:00 +23°C° 0 mm 10 mps 748 mmHg 22%
    16:00 +22°C° 0 mm 10 mps 748 mmHg 22%
    17:00 +21°C° 0 mm 9 mps 749 mmHg 25%
    18:00 +18°C° 0 mm 9 mps 749 mmHg 28%
    19:00 +17°C° 0 mm 8 mps 750 mmHg 31%
    20:00 +17°C° 0 mm 8 mps 750 mmHg 33%
    21:00 +16°C° 0 mm 9 mps 750 mmHg 34%
    22:00 +16°C° 0 mm 9 mps 750 mmHg 35%
    23:00 +16°C° 0 mm 9 mps 750 mmHg 37%
    Show more